{"data":{"norad_id":68810,"epoch":"2026-05-25T02:45:12.608064Z","epoch_age_seconds":65400,"freshness":"FRESH","line1":"1 68810U 26089J   26145.11472926  .00201550  00000+0  13205-2 0  9993","line2":"2 68810  97.2845 351.7599 0001462  70.9159 289.2265 15.75189710  5062","mean_motion":15.7518971,"eccentricity":0.0001462,"inclination_deg":97.2845,"raan_deg":351.7599,"arg_perigee_deg":70.9159,"mean_anomaly_deg":289.2265,"bstar":0.0013205,"rev_number":506,"period_min":91.417560110902,"perigee_km":343.10860395744,"apogee_km":345.07418353977,"semimajor_km":6722.2283937486,"source":"CELESTRAK","updated_at":"2026-05-25T13:38:22.041503Z"}}